Terminal Aerodrome Forecast
Issued by NWS Mt. Holly, NJ

Home | Current Version | Previous Version | Text Only | Print | Product List | Glossary On
Versions: 1 2 3 4 5 6 7 8 9 10 11 12 13 14 15 16 17 18 19 20 21 22 23 24 25 26 27 28 29 30 31 32 33 34 35 36 37 38 39 40 41 42 43 44 45 46 47 48 49 50
000
FTUS41 KPHI 140300 AAC
TAFABE
TAF AMD
KABE 140356Z 1404/1424 26008KT P6SM SCT020 BKN110
      TEMPO 1404/1405 5SM RA BR
     FM140700 VRB03KT 4SM BR SCT020 BKN100
     FM140900 VRB03KT 2SM BR BKN015
     FM141300 21005KT P6SM SCT030 BKN050
     FM141800 22008KT P6SM BKN040
      TEMPO 1420/1424 3SM SHRA BKN025=

USA.gov is the U.S. government's official web portal to all federal, state and local government web resources and services.